Back to catalog

THORAD AGENA D DEB

AliveSSO
NORAD 4948·DEBRIS·🇺🇸 United States

Launched Apr 8, 1970 from Vandenberg Space Force Base

Loading…

Next Passes (next 24 hours)

TLE

FreshSource: Space-Track

Epoch: Sep 14, 2026, 01:55 UTC

1 04948U 70025GJ  26257.08042347  .00000811  00000-0  11278-2 0  9990
2 04948  99.3951  99.9532 0205221 277.9072 236.4675 13.52625841750424

Track THORAD AGENA D DEB in real time with AllMySat

Download on the App Store